Probability
0 0 0 0 0 0 0 0 0 0 0 0 0 0 0 0 0 0 0 0 0 0 0 0 0 0 0 0 0 0 0 0 0 0 0 0 0 0 0 0 0 0 0 0
0 0 0 0 0 0 0 0 0 0 0 0 0 0 0 0 0 0 0 0 0 0 0 0 0 0 0 0 0 0 0 0 0 0 0 0 0 0 0 0 0 0 0 0
0 0 0 0 0 0 0 0 0 0 0 0 0 0 0 0 0 0 0 0 0 0 0 0 0 0 0 0 0 0 0 0 0 0 0 0 0 0 0 0 0 0 0 0
0 0 0 0 0 0 0 0 0 0 0 0 0 0 0 0 0 0 0 0 0 0 0 0 0 0 0 0 0 0 0 0 0 0 0 0 0 0 0 0 0 0 0 0
0 0 0 0 0 0 0 0 0 0 0 0 0 0 0 0 0 0 0 0 0 0 0 0 0 0 0 0 0 0 0 0 0 0 0 0 0 0 0 0 0 0 0 0
0 0 0 0 0 0 0 0 0 0 0 0 0 0 0 0 0 0 0 0 0 0 0 0 0 0 0 0 0 0 0 0 0 0 0 0 0 0 0 0 0 0 0 0
0 0 0 0 0 0 0 0 0 0 0 0 0 0 0 0 0 0 0 0 0 0 0 0 0 0 0 0 0 0 0 0 0 0 0 0 0 0 0 0 0 0 0 0
0 0 0 0 0 0 0 0 0 0 0 0 0 0 0 0 0 0 0 0 0 0 0 0 0 0 0 0 0 0 0 0 0 0 0 0 0 0 0 0 0 0 0 0
0 0 0 0 0 0 0 0 0 0 0 0 0 0 0 0 0 0 0 0 0 0 0 0 0 0 0 0 0 0 0 0 0 0 0 0 0 0 0 0 0 0 0 0
0 0 0 0 0 0 0 0 0 0 0 0 0 0 0 0 0 0 0 0 0 0 0 0 0 0 0 0 0 0 0 0 0 0 0 0 0 0 0 0 0 0 0 0
0 0 0 0 0 0 0 0 0 0 0 0 0 0 0 0 0 0 0 0 0 0 0 0 0 0 0 0 0 0 0 0 0 0 0 0 0 0 0 0 0 0 0 0
0 0 0 0 0 0 0 0 0 0 0 0 0 0 0 0 0 0 0 0 0 0 0 0 0 0 0 0 0 0 0 0 0 0 0 0 0 0 0 0 0 0 0 0
0 0 0 0 0 0 0 0 0 0 0 0 0 0 0 0 0 0 0 0 0 0 0 0 0 0 0 0 0 0 0 0 0 0 0 0 0 0 0 0 0 0 0 0
0 0 0 0 0 0 0 0 0 0 0 0 0 0 0 0 0 0 0 0 0 0 0 0 0 0 0 0 0 0 0 0 0 0 0 0 0 0 0 0 0 0 0 0
0 0 0 0 0 0 0 0 0 0 0 0 0 0 0 0 0 0 0 0 0 0 0 0 0 0 0 0 0 0 0 0 0 0 0 0 0 0 0 0 0 0 0 0
0 0 0 0 0 0 0 0 0 0 0 0 0 0 0 0 0 0 0 0 0 0 0 0 0 0 0 0 0 0 0 0 0 0 0 0 0 0 0 0 0 0 0 0
0 0 0 0 0 0 0 0 0 0 0 0 0 0 0 0 0 0 0 0 0 0 0 0 0 0 0 0 0 0 0 0 0 0 0 0 0 0 0 0 0 0 0 0
0 0 0 0 0 0 0 0 0 0 0 0 0 0 0 0 0 0 0 0 0 0 0 0 0 0 0 0 0 0 0 0 0 0 0 0 0 0 0 0 0 0 0 0
0 0 0 0 0 0 0 0 0 0 0 0 0 0 0 0 0 0 0 0 0 0 0 0 0 0 0 0 0 0 0 0 0 0 0 0 0 0 0 0 0 0 0 0
0 0 0 0 0 0 0 0 0 0 0 0 0 0 0 0 0 0 0 0 0 0 0 0 0 0 0 0 0 0 0 0 0 0 0 0 0 0 0 0 0 0 0 0
0 0 0 0 0 0 0 0 0 0 0 0 0 0 0 0 0 0 0 0 0 0 0 0 0 0 0 0 0 0 0 0 0 0 0 0 0 0 0 0 0 0 0 0
0 0 0 0 0 0 0 0 0 0 0 0 0 0 0 0 0 0 0 0 0 0 0 0 0 0 0 0 0 0 0 0 0 0 0 0 0 0 0 0 0 0 0 0
0 0 0 0 0 0 0 0 0 0 0 0 0 0 0 0 0 0 0 0 0 0 0 0 0 0 0 0 0 0 0 0 0 0 0 0 0 0 0 0 0 0 0 0
0 0 0 0 0 0 0 0 0 0 0 0 0 0 0 0 0 0 0 0 0 0 0 0 0 0 0 0 0 0 0 0 0 0 0 0 0 0 0 0 0 0 0 0
0 0 0 0 0 0 0 0 0 0 0 0 0 0 0 0 0 0 0 0 0 0 0 0 0 0 0 0 0 0 0 0 0 0 0 0 0 0 0 0 0 0 0 0
0 0 0 0 0 0 0 0 0 0 0 0 0 0 0 0 0 0 0 0 0 0 0 0 0 0 0 0 0 0 0 0 0 0 0 0 0 0 0 0 0 0 0 0
0 0 0 0 0 0 0 0 0 0 0 0 0 0 0 0 0 0 0 0 0 0 0 0 0 0 0 0 0 0 0 0 0 0 0 0 0 0 0 0 0 0 0 0
Height
5850 5845 5840 5834 5828 5822 5815 5806 5797 5788 5777 5766 5754 5741 5726 5711 5695 5679 5662 5646 5629 5614 5600 5587 5572 5557 5542 5527 5513 5499 5486 5474 5460 5445 5430 5415 5399 5384 5368 5352 5336 5323 5314 5311
5850 5844 5839 5832 5825 5818 5810 5801 5792 5782 5772 5761 5749 5735 5721 5706 5690 5674 5658 5641 5624 5609 5596 5583 5569 5554 5539 5524 5510 5496 5483 5470 5455 5440 5424 5408 5391 5373 5355 5336 5319 5305 5297 5295
5846 5840 5836 5828 5821 5813 5806 5797 5787 5777 5768 5755 5743 5731 5717 5701 5686 5670 5653 5636 5620 5606 5593 5579 5565 5550 5536 5521 5507 5493 5480 5466 5452 5436 5419 5401 5383 5364 5343 5322 5304 5292 5286 5285
5841 5836 5829 5826 5816 5808 5800 5792 5782 5772 5762 5751 5739 5726 5712 5697 5681 5665 5648 5632 5617 5603 5590 5576 5562 5548 5532 5518 5504 5491 5478 5464 5449 5433 5416 5397 5377 5356 5335 5313 5296 5286 5281 5280
5835 5829 5824 5819 5810 5801 5794 5788 5778 5767 5757 5746 5734 5721 5708 5692 5677 5661 5645 5628 5614 5600 5587 5574 5560 5545 5531 5517 5503 5490 5476 5463 5447 5431 5413 5394 5373 5353 5331 5310 5294 5284 5280 5279
5833 5825 5818 5814 5805 5796 5789 5781 5773 5762 5752 5741 5730 5717 5704 5687 5672 5657 5641 5625 5611 5598 5585 5572 5558 5544 5530 5516 5503 5489 5475 5461 5445 5429 5411 5392 5372 5352 5330 5309 5294 5285 5281 5280
5830 5823 5815 5808 5798 5790 5784 5777 5767 5757 5748 5737 5725 5713 5699 5684 5669 5654 5638 5623 5608 5595 5583 5570 5557 5543 5529 5516 5502 5488 5474 5459 5445 5429 5411 5394 5375 5355 5334 5314 5299 5289 5283 5282
5825 5816 5812 5802 5792 5786 5779 5771 5762 5753 5743 5732 5720 5708 5694 5680 5666 5651 5636 5620 5605 5592 5581 5569 5556 5543 5529 5516 5502 5488 5474 5461 5446 5431 5415 5398 5380 5361 5342 5322 5306 5295 5288 5285
5823 5817 5808 5798 5789 5781 5774 5766 5758 5749 5739 5728 5716 5704 5691 5677 5663 5648 5633 5618 5604 5591 5579 5568 5556 5543 5530 5517 5504 5490 5476 5463 5449 5435 5420 5404 5387 5369 5351 5333 5316 5303 5294 5290
5820 5812 5804 5794 5785 5777 5769 5761 5753 5744 5734 5723 5712 5700 5688 5674 5660 5646 5632 5617 5602 5590 5578 5567 5555 5543 5530 5518 5505 5492 5479 5466 5453 5439 5424 5409 5393 5376 5360 5343 5327 5313 5302 5295
5816 5809 5800 5791 5782 5773 5764 5757 5749 5740 5730 5719 5708 5697 5684 5671 5658 5644 5630 5615 5601 5589 5577 5566 5555 5543 5531 5519 5507 5494 5482 5470 5457 5443 5429 5414 5398 5383 5367 5351 5337 5325 5314 5304
5813 5805 5796 5787 5777 5768 5760 5752 5744 5735 5725 5715 5705 5694 5681 5668 5655 5642 5628 5614 5600 5588 5576 5566 5555 5544 5533 5521 5509 5498 5486 5474 5462 5449 5435 5421 5407 5392 5377 5363 5350 5338 5326 5315
5808 5800 5791 5782 5773 5764 5756 5748 5740 5731 5721 5711 5701 5690 5678 5665 5653 5640 5626 5613 5599 5587 5576 5565 5555 5545 5534 5522 5511 5500 5490 5478 5466 5454 5442 5429 5416 5403 5390 5376 5363 5351 5339 5328
5802 5795 5786 5778 5769 5760 5752 5744 5735 5726 5717 5708 5698 5687 5675 5662 5650 5638 5625 5612 5599 5587 5576 5565 5556 5546 5535 5525 5514 5504 5493 5482 5471 5459 5448 5436 5424 5412 5400 5388 5376 5364 5352 5340
5798 5791 5783 5774 5765 5756 5747 5739 5731 5722 5713 5704 5694 5683 5672 5660 5648 5636 5624 5612 5599 5587 5575 5565 5556 5547 5537 5527 5517 5507 5497 5487 5476 5465 5454 5443 5432 5420 5409 5398 5387 5375 5364 5353
5793 5785 5777 5769 5761 5752 5743 5735 5727 5718 5709 5700 5690 5680 5669 5657 5645 5634 5622 5610 5599 5587 5575 5565 5556 5548 5539 5529 5519 5509 5500 5490 5481 5470 5460 5449 5439 5428 5418 5408 5397 5386 5376 5366
5786 5779 5772 5765 5756 5747 5739 5731 5722 5714 5705 5696 5687 5676 5665 5654 5643 5632 5621 5609 5598 5586 5575 5566 5557 5549 5540 5531 5521 5512 5503 5494 5485 5475 5465 5455 5446 5435 5426 5416 5406 5395 5385 5376
5780 5774 5767 5759 5751 5742 5734 5726 5717 5709 5701 5692 5682 5673 5662 5651 5641 5630 5620 5609 5598 5587 5576 5566 5558 5549 5540 5532 5523 5514 5506 5497 5489 5480 5470 5461 5452 5442 5433 5423 5414 5404 5394 5385
5772 5766 5760 5752 5744 5736 5728 5720 5712 5704 5696 5687 5678 5668 5658 5648 5638 5628 5618 5608 5597 5587 5577 5567 5558 5549 5541 5533 5525 5517 5508 5500 5492 5483 5475 5466 5458 5449 5439 5430 5421 5412 5403 5394
5764 5758 5752 5745 5737 5730 5722 5714 5706 5699 5691 5682 5673 5664 5654 5644 5634 5625 5615 5606 5596 5585 5575 5566 5557 5549 5541 5534 5527 5519 5511 5503 5495 5487 5479 5471 5463 5455 5446 5437 5428 5419 5410 5402
5755 5750 5744 5737 5730 5723 5715 5707 5700 5693 5685 5677 5669 5659 5650 5640 5630 5621 5612 5603 5593 5583 5574 5565 5557 5549 5542 5535 5528 5521 5514 5506 5498 5490 5482 5475 5468 5460 5451 5442 5434 5425 5417 5408
5746 5741 5736 5729 5723 5715 5708 5701 5694 5687 5679 5672 5664 5655 5645 5635 5626 5618 5609 5601 5591 5582 5574 5565 5557 5549 5542 5535 5529 5522 5516 5508 5500 5493 5485 5478 5471 5464 5455 5447 5439 5430 5422 5414
5737 5732 5727 5721 5715 5708 5701 5694 5687 5681 5674 5666 5658 5649 5640 5631 5622 5614 5607 5598 5589 5581 5573 5564 5556 5548 5541 5535 5529 5523 5516 5510 5502 5495 5488 5481 5474 5467 5459 5451 5443 5435 5427 5420
5728 5723 5718 5712 5706 5700 5693 5687 5680 5674 5668 5660 5652 5644 5635 5627 5618 5610 5602 5595 5587 5578 5570 5563 5555 5548 5540 5534 5528 5522 5516 5510 5504 5497 5490 5483 5476 5470 5463 5455 5447 5440 5432 5425
5717 5713 5708 5703 5697 5691 5685 5679 5673 5667 5661 5654 5646 5638 5630 5622 5614 5605 5598 5591 5584 5576 5568 5561 5554 5547 5539 5533 5527 5521 5516 5511 5505 5499 5492 5485 5479 5472 5465 5458 5451 5443 5436 5429
5707 5703 5698 5694 5689 5683 5677 5671 5666 5660 5654 5647 5640 5632 5625 5616 5608 5601 5594 5587 5580 5572 5565 5558 5552 5545 5538 5532 5525 5520 5514 5509 5504 5498 5492 5486 5480 5474 5467 5461 5454 5447 5439 5432
5695 5692 5688 5684 5679 5674 5668 5663 5658 5652 5647 5640 5633 5626 5618 5611 5603 5596 5589 5583 5576 5569 5562 5555 5549 5543 5537 5530 5524 5518 5512 5507 5502 5497 5491 5486 5480 5474 5468 5462 5455 5448 5442 5435
Wind_Speed
25 27 28 31 34 36 39 43 48 53 57 60 64 69 72 74 74 75 74 73 70 64 60 60 62 63 63 63 60 57 55 56 58 60 61 62 62 63 63 63 61 55 45 35
25 25 27 30 34 37 40 44 50 55 59 62 65 69 72 74 74 74 74 72 68 62 59 60 62 63 63 62 59 56 55 57 60 62 63 63 64 65 66 65 59 48 36 25
29 28 28 33 38 41 42 46 51 56 60 62 66 70 72 74 73 74 73 71 66 60 58 60 62 63 63 61 58 56 56 58 61 63 64 65 66 68 70 66 55 40 25 14
34 33 32 37 40 43 45 47 52 56 60 63 66 70 72 73 73 73 72 69 64 59 57 59 62 63 62 61 58 56 56 59 62 64 65 66 68 71 72 65 50 33 19 7
41 40 38 38 42 45 48 49 53 57 61 63 66 70 72 73 72 72 71 69 63 58 56 58 61 62 61 60 58 56 56 59 62 65 67 68 70 72 72 62 47 31 16 5
45 45 45 44 44 46 48 51 54 58 62 63 66 69 71 72 71 71 71 68 63 58 55 58 60 61 61 60 59 57 57 59 63 66 68 69 71 74 73 63 48 32 17 6
48 49 48 49 48 48 49 52 55 58 61 63 65 69 71 71 71 71 70 68 63 57 55 57 59 60 60 60 59 58 58 60 63 66 68 69 71 74 74 65 51 36 21 9
53 54 54 54 52 49 49 51 54 57 61 62 65 68 70 70 70 70 69 67 62 57 54 56 58 59 59 59 59 58 58 60 62 65 67 69 70 72 73 69 57 41 27 15
52 54 56 57 53 49 48 50 53 57 60 61 64 68 70 69 69 69 69 66 62 56 54 55 57 58 58 58 58 58 58 59 60 63 66 68 69 70 72 72 64 51 36 22
52 55 58 57 54 50 48 50 53 57 60 61 64 67 69 68 68 68 68 65 61 56 53 53 55 57 57 56 57 58 58 58 58 61 64 67 69 69 71 72 70 62 48 33
51 56 59 59 55 51 49 50 53 57 59 61 64 67 68 68 67 67 67 65 61 56 52 52 53 55 55 55 55 56 56 56 56 58 62 65 68 70 70 71 71 69 61 48
51 56 59 60 58 53 50 50 53 56 59 61 64 67 67 67 66 66 65 64 60 56 52 50 51 53 54 54 54 54 54 55 55 56 59 62 65 68 69 69 69 68 67 61
51 55 59 61 58 54 51 51 53 56 58 61 64 66 67 66 65 65 64 63 60 56 51 49 49 51 52 52 52 52 53 54 54 55 56 58 61 63 66 68 68 67 67 65
51 55 58 60 59 55 52 51 53 55 58 61 64 65 66 65 64 63 63 62 60 56 51 48 48 49 50 50 50 50 51 52 53 54 54 55 57 59 62 64 66 67 66 65
51 54 57 60 59 56 53 52 52 54 57 60 62 64 64 64 63 62 62 61 59 55 51 47 46 47 48 49 48 48 48 50 51 52 52 52 53 55 57 60 63 65 65 65
51 53 56 59 60 58 55 52 52 53 56 58 61 63 63 62 61 60 60 60 58 55 51 46 44 44 46 47 47 46 46 47 49 50 50 50 50 51 53 55 58 60 62 63
52 54 56 59 60 59 56 53 51 52 54 57 60 62 63 61 59 58 58 59 57 54 50 45 42 42 43 45 45 45 44 45 46 47 48 48 48 49 50 52 54 56 59 61
52 54 57 59 60 60 57 53 51 52 53 56 59 62 63 60 58 57 56 57 56 53 50 45 41 40 41 43 44 44 43 43 43 44 45 46 46 47 48 50 51 53 55 56
53 54 57 59 60 60 58 53 51 51 53 56 59 61 62 60 57 55 55 55 55 53 50 46 41 39 39 40 42 42 42 42 42 42 43 43 44 45 46 48 49 51 52 53
54 55 58 60 61 60 57 53 51 51 53 55 59 61 61 59 56 53 53 53 53 52 49 46 42 38 37 38 40 41 41 41 41 40 41 41 41 42 44 46 47 49 50 50
56 57 59 61 61 60 56 53 51 50 52 55 58 60 60 58 54 51 51 51 52 50 48 45 42 38 36 36 37 38 39 40 40 40 39 39 40 40 42 44 45 47 48 49
57 58 60 61 61 58 55 52 50 49 50 54 57 59 59 57 53 50 49 49 49 48 46 44 42 39 35 34 34 36 37 38 39 39 39 39 39 40 41 42 44 45 46 47
59 60 61 61 59 56 54 51 49 48 49 53 56 58 58 56 52 49 47 47 48 46 45 43 42 39 36 33 33 33 35 36 37 38 38 38 39 39 40 41 42 43 44 45
61 62 61 60 56 54 53 50 48 47 49 53 56 57 57 55 52 48 46 45 46 45 43 42 41 39 36 34 32 31 32 33 34 35 36 37 38 39 39 40 40 41 42 42
63 62 60 57 54 53 52 50 47 47 49 53 55 56 56 55 52 47 45 44 44 44 42 41 40 39 37 34 32 31 30 30 31 32 34 35 36 37 38 39 40 40 40 41
63 61 57 53 51 51 50 49 47 47 50 53 55 56 55 55 52 47 44 42 42 42 41 39 38 38 37 35 33 32 30 29 29 30 32 33 34 35 37 37 38 39 39 40
61 57 53 49 48 49 48 47 47 48 51 53 55 55 54 53 51 47 44 42 41 41 41 39 37 37 37 36 35 33 32 30 29 29 30 30 31 33 34 36 37 37 38 38
Wind_Direction
344 343 340 336 334 334 334 336 338 341 342 343 343 344 344 345 344 344 345 344 344 344 345 347 348 348 349 349 349 349 350 349 347 345 342 340 338 336 333 329 325 320 312 303
345 342 339 333 331 334 336 337 339 341 343 344 343 344 345 345 345 345 346 346 345 345 346 348 350 350 351 351 351 351 351 351 349 348 346 343 341 340 338 335 331 326 317 303
346 342 339 335 334 335 337 338 339 341 342 343 343 345 346 346 346 347 348 347 347 346 347 350 351 352 353 354 354 353 353 353 353 351 350 348 346 345 344 342 340 336 329 309
351 343 342 336 333 334 336 339 339 340 342 343 343 345 347 347 347 348 349 348 348 348 348 351 353 354 355 356 355 355 354 355 356 355 354 353 352 352 350 349 348 347 343 324
354 347 342 336 334 334 335 339 339 340 341 343 343 345 347 347 348 349 350 350 350 349 350 352 354 356 357 357 357 356 356 357 358 358 358 358 358 357 356 357 357 357 358 351
356 350 345 339 335 333 335 337 339 340 341 342 343 345 346 348 348 350 351 351 351 351 351 353 355 357 358 358 358 358 358 360 1 1 2 2 2 3 3 3 4 5 7 12
356 353 350 343 338 335 336 336 337 339 340 342 343 345 347 348 349 351 352 353 352 352 352 354 356 358 358 359 360 0 1 2 3 4 6 6 7 8 9 9 9 10 12 16
354 353 351 346 341 337 335 335 336 338 340 341 343 345 347 348 350 351 353 354 354 353 353 354 357 359 359 0 1 2 3 4 5 7 9 10 11 12 14 15 15 16 18 20
353 350 349 346 342 338 334 334 335 337 340 341 343 346 347 348 350 352 353 354 354 354 354 355 358 359 0 1 2 4 5 6 7 9 11 13 14 16 18 20 21 21 22 23
350 349 348 346 344 339 335 334 335 337 339 340 343 346 347 348 350 352 354 355 355 355 355 356 358 0 1 2 3 5 7 7 8 11 13 15 17 19 21 23 25 25 25 25
347 347 346 345 344 340 336 335 335 337 338 340 343 346 347 347 349 352 354 355 356 356 356 358 359 1 2 3 5 7 8 7 9 12 15 17 18 21 23 24 26 27 28 28
343 344 345 344 344 341 337 335 336 336 338 340 342 345 346 347 349 351 354 355 356 356 357 359 0 1 3 4 6 8 9 9 11 14 16 18 21 23 25 26 27 28 29 30
339 342 343 343 343 341 338 336 336 336 338 340 342 344 346 347 348 351 354 355 356 357 358 359 0 2 3 5 7 8 10 10 12 15 17 19 22 24 26 28 29 30 30 31
336 339 341 341 341 341 339 337 337 336 338 340 342 344 345 346 348 350 354 355 357 357 358 359 0 2 4 6 7 9 10 11 13 15 17 19 21 24 26 28 30 31 31 32
332 336 338 339 340 340 339 338 337 336 337 339 342 343 345 346 347 350 353 355 356 357 358 359 0 2 4 6 7 9 10 11 13 14 16 19 21 23 26 28 30 31 32 33
328 332 335 336 337 339 339 337 336 335 337 339 341 343 344 345 347 349 353 355 356 357 358 359 360 1 4 6 8 8 9 10 12 14 16 18 20 23 25 26 29 30 32 33
325 328 331 333 335 336 337 336 335 334 336 338 340 342 344 345 346 348 352 355 355 357 357 358 359 1 4 6 8 9 9 10 11 13 15 18 20 23 25 26 27 29 30 31
321 324 327 330 333 334 336 335 333 333 334 336 338 341 343 344 346 348 350 354 355 356 357 357 357 360 4 6 8 10 10 10 12 14 16 18 20 23 25 26 27 28 29 30
319 322 325 328 330 332 333 332 331 331 332 334 336 339 342 343 345 347 349 352 354 355 356 356 357 359 3 5 8 10 11 11 12 14 16 18 19 22 24 25 26 27 27 28
316 319 323 326 328 329 330 330 329 329 330 332 335 337 340 342 343 345 347 351 353 354 356 356 356 358 1 4 7 9 11 13 14 14 16 17 17 19 21 23 24 25 25 26
313 316 320 323 325 326 327 327 327 327 329 331 333 336 338 340 341 343 345 349 352 353 354 355 355 356 358 1 4 7 10 12 14 15 15 15 15 15 17 20 21 22 23 23
310 313 317 320 322 323 324 324 325 325 328 331 332 334 336 338 340 341 343 348 351 352 352 353 355 355 355 357 0 4 7 10 12 14 14 14 13 13 14 17 19 20 21 21
307 311 314 317 319 320 321 322 323 324 327 330 332 333 335 337 338 339 342 345 350 350 350 351 354 354 352 353 356 359 2 6 9 11 12 12 12 12 12 13 16 17 19 19
305 309 312 314 316 317 318 319 320 321 325 329 330 331 333 335 336 336 338 343 348 349 348 349 352 353 351 350 350 353 357 0 4 6 8 10 10 10 10 11 12 14 15 17
303 306 308 311 313 314 316 316 316 318 322 326 328 330 332 334 334 334 335 340 345 347 347 346 348 351 351 349 346 347 349 353 356 359 3 5 6 7 7 8 10 11 12 13
300 303 305 307 309 312 314 314 313 315 319 323 326 328 330 332 332 331 332 336 342 345 345 344 344 347 349 349 346 343 342 343 347 350 354 357 0 2 2 4 6 7 8 10
297 299 301 303 306 310 312 312 311 313 316 321 324 326 328 330 330 329 329 333 338 342 343 342 340 342 346 348 347 344 340 338 338 340 344 348 351 354 357 358 359 1 3 4